Meteo Giornale » Osservazioni meteo Francia » Parigi-Orly

ore: 14:30 - Osservazioni Meteo Parigi-Orly
Lat. 48° 44' N Lon. 2° 24' E Alt. 89 metri s.l.m.

sereno Europe/Paris

18 °C

Sereno

Temp. 24 Ore

7 °C

19 °C

Sud

22.2 Km/h

Dew point 1 °C

Umidità 31 %

Visibilità  10 Km

Il sole sorge alle ore 06:28

Il sole tramonta alle ore 21:06

Data e Ora Cielo e Fenomeni T °C DP °C Um. % Pres. hPa Vis. km Vento km/h
Oggi h: 14:30 sereno Sereno 18 1 31 1002 10 S 22.2
Oggi h: 14:00 sereno Sereno 19 2 32 1002 10 S 18.5
Oggi h: 13:30 sereno Sereno 19 1 29 1002 10 S/SE 22.2
Oggi h: 13:00 sereno Sereno 18 1 31 1002 10 S/SE 24
Oggi h: 12:30 sereno Sereno 17 0 31 1003 10 S/SE 20.3
Oggi h: 11:30 sereno Sereno 16 1 36 1003 10 SE 22.2
Oggi h: 11:00 sereno Sereno 15 1 38 1004 10 S/SE 14.8
Oggi h: 10:30 sereno Sereno 14 1 41 1004 10 S/SE 14.8
Oggi h: 10:00 sereno Sereno 13 1 43 1005 10 S 16.7
Oggi h: 09:30 sereno Sereno 12 1 46 1005 10 S/SE 13
Oggi h: 09:00 sereno Sereno 10 1 53 1006 10 S/SE 7.4
Oggi h: 08:30 sereno Sereno 9 2 61 1006 10 SE 13
Oggi h: 08:00 sereno Sereno 8 2 65 1006 10 E/SE 7.4
Oggi h: 07:30 sereno Sereno 7 1 65 1006 10 N 5.5
Oggi h: 06:30 sereno Sereno 7 1 65 1007 10 N 5.5
Oggi h: 06:00 sereno Sereno 7 1 65 1007 10 N 1.8
Oggi h: 05:30 sereno Sereno 7 1 65 1007 10 N 3.7
Oggi h: 05:00 sereno Sereno 8 1 61 1007 10 N 5.5
Oggi h: 04:30 sereno Sereno 8 1 61 1008 10 N 3.7
Oggi h: 04:00 sereno Sereno 8 1 61 1008 10 E/SE 7.4
Oggi h: 03:30 sereno Sereno 8 1 61 1008 10 N 3.7
Oggi h: 03:00 sereno Sereno 8 1 61 1009 10 N 3.7
Oggi h: 02:30 sereno Sereno 8 1 61 1009 10 E/SE 9.3
Oggi h: 02:00 sereno Sereno 8 1 61 1009 10 E/SE 13
Oggi h: 01:30 sereno Sereno 8 1 61 1010 10 E/SE 13
Oggi h: 01:00 sereno Sereno 9 1 57 1010 10 E 13
Oggi h: 00:30 sereno Sereno 10 1 53 1010 10 E 14.8
Oggi h: 00:00 sereno Sereno 10 1 53 1010 10 E 13
Ieri h: 23:30 sereno Sereno 10 2 57 1011 10 E 13
Ieri h: 23:00 sereno Sereno 11 2 53 1011 10 E 14.8
Ieri h: 22:30 sereno Sereno 11 2 53 1011 10 E 13
Ieri h: 22:00 sereno Sereno 12 2 50 1011 10 E 11.1
Ieri h: 21:30 sereno Sereno 12 2 50 1011 10 E 14.8
Ieri h: 21:00 sereno Sereno 13 2 47 1011 10 E 13
Ieri h: 20:30 sereno Sereno 14 2 44 1011 10 E 14.8
Ieri h: 20:00 sereno Sereno 15 2 41 1011 10 E 18.5
Ieri h: 19:30 sereno Sereno 16 2 38 1012 10 E 16.7
Ieri h: 19:00 sereno Sereno 15 2 41 1012 10 E 18.5
Ieri h: 18:30 sereno Sereno 16 2 38 1012 10 E/SE 13
Ieri h: 18:00 sereno Sereno 16 2 38 1013 10 E/SE 18.5
Ieri h: 17:30 sereno Sereno 16 2 38 1013 10 E/SE 16.7
Ieri h: 17:00 sereno Sereno 16 3 41 1013 10 E/SE 18.5
Ieri h: 16:30 sereno Sereno 16 3 41 1014 10 E 22.2
Ieri h: 16:00 sereno Sereno 15 2 41 1014 10 E 16.7
Ieri h: 15:30 sereno Sereno 16 2 38 1015 10 E/NE 13
Ieri h: 15:00 sereno Sereno 15 3 44 1015 10 E 18.5